Weather in Novospasskoye

Russia / Ulyanovsk Oblast     53°08′50″N   47°45′56″E
temp.,
°C
wind,
m/s
gust,
m/s
humid.,
%
clouds,
%
prec.,
mm/h
press.,
hPa
HPBL,
m
11 may, tue
tue1101:00+16ene51358100 0.0 1017335
04:00+16ene5145779 0.0 1018389
07:00+16e5125859 0.0 1020564
10:00+18sse466665 0.0 1023912
13:00+19sse576194 0.0 10241399
16:00+13sw347968 0.1 1026269
19:00+14wsw1278100 0.0 1026175
22:00+12nw118476 0.0 102611
12 may, wed
wed1201:00+12n1184100 0.0 102615
04:00+13ne2685100 0.0 1025134
07:00+13ene21083100 0.0 1025338
10:00+14e6147697 0.1 1025526
13:00+16e71467100 0.1 1025681
16:00+15e41182100 0.4 1025449
19:00+16e51168100 0.0 1025432
22:00+13e3108183 0.0 1025216
13 may, thu
thu1301:00+13e287593 0.0 1025180
04:00+12e3106988 0.0 1024220
07:00+14e61462100 0.0 1023353
10:00+13ene3681100 1.0 1024190
13:00+22ese71049100 0.1 1023895
16:00+25se7124196 0.1 10221619
19:00+21se5134899 0.0 1021610
22:00+16se34628 0.0 102164
14 may, fri
fri1401:00+14e22674 0.0 102117
04:00+13ese22674 0.0 102225
07:00+15ese266731 0.0 1022167
10:00+22sse58475 0.0 1022506
13:00+26sse710347 0.0 10221086
16:00+27sse693425 0.0 10211377
19:00+23sse410489 0.0 1021411
22:00+18se235761 0.0 102140
15 may, sat
sat1501:00+16ese22550 0.0 102115
04:00+15ese22565 0.0 102111
07:00+17ese23582 0.0 102185
10:00+23sse48371 0.0 1020525
13:00+27s610295 0.0 10201316
16:00+28s692820 0.0 10192077
19:00+24se35440 0.0 1018127
22:00+19se22516 0.0 101818